Location: Eisingen in Unterfranken
(49.7591°N, 9.8347°E)
Time: 16:21:56
(UTC+01:00)

ISS - Visible Passes

Search period start: 04 December 2022 00:00
Search period end: 14 December 2022 00:00
Orbit: 414 x 420 km, 51.6° (Epoch: 04 December)

Date Brightness Start Highest point End Pass type
(mag) Time Alt. Az. Time Alt. Az. Time Alt. Az.
04 Dec -3.7 17:03:36 10° WNW 17:06:58 86° SSW 17:10:19 10° ESE visible
04 Dec -1.5 18:40:44 10° W 18:43:25 22° SW 18:44:45 18° S visible
05 Dec -2.1 17:52:22 10° W 17:55:25 32° SSW 17:58:26 10° SSE visible
06 Dec -2.7 17:04:06 10° WNW 17:07:20 47° SSW 17:10:34 10° SE visible
06 Dec -0.4 18:43:01 10° SW 18:43:27 10° SW 18:43:52 10° SW visible
07 Dec -0.7 17:53:23 10° W 17:55:30 16° SW 17:57:35 10° S visible
08 Dec -1.1 17:04:44 10° W 17:07:28 23° SW 17:10:12 10° SSE visible
10 Dec 0.0 17:06:30 10° WSW 17:07:20 11° SW 17:08:11 10° SSW visible
